Regional Weather Roundup
Issued by NWS Cleveland, OH

Home | Current Version | Previous Version | Graphics & Text | Print | Product List | Glossary On
Versions: 1 2 3 4 5 6 7 8 9 10 11 12 13 14 15 16 17 18 19 20 21 22 23 24 25 26 27 28 29 30 31 32 33 34 35 36 37 38 39 40 41 42 43 44 45 46 47 48 49 50
000
ASUS41 KCLE 191100
RWRCLE
OHIO REGIONAL WEATHER ROUNDUP
NATIONAL WEATHER SERVICE WILMINGTON, OH
600 AM EST SUN FEB 19 2017

NOTE: "FAIR" INDICATES FEW OR NO CLOUDS BELOW 12,000 FEET WITH NO
SIGNIFICANT WEATHER AND/OR OBSTRUCTIONS TO VISIBILITY.

OHZ001>008-015>018-024>027-034-035-043-044-191200-
   NORTHWEST OHIO

CITY           SKY/WX    TMP DP  RH WIND       PRES   REMARKS
DEFIANCE       FAIR      38  36  92 SW3       29.93R FOG
FINDLAY        FAIR      43  40  89 W10       29.92R FOG
TOLEDO EXPRESS FAIR      39  38  96 SW5       29.91R
TOLEDO EXEC    FAIR      39  37  92 SW6       29.92R
LIMA           CLOUDY    46  45  96 W13       29.94R FOG
$$

OHZ009>014-019>023-028>033-038-089-191200-
   NORTHEAST OHIO

CITY           SKY/WX    TMP DP  RH WIND       PRES   REMARKS
CLE-HOPKINS    FAIR      45  39  79 SW8       29.92R
CLE-LAKEFRONT  FAIR      45  39  79 SW10      29.88R
CUY CO. ARPT   NOT AVBL
LORAIN-ELYRIA  FAIR      41  37  86 W8        29.91R
ASHTABULA      FAIR      39  37  92 CALM      29.88R
AKRON-CANTON   FAIR      40  36  86 CALM      29.91R FOG
WOOSTER        NOT AVBL
MANSFIELD      FAIR      44  43  96 W8        29.91R FOG
YOUNGSTOWN     FAIR      42  39  89 SW8       29.89R
$$

OHZ042-051>053-060>062-070>072-077>081-191200-
  SOUTHWEST OHIO

CITY           SKY/WX    TMP DP  RH WIND       PRES   REMARKS
CINC-COVINGTON CLOUDY    48  46  93 W9        30.01R
CINC-LUNKEN    CLOUDY    44  44 100 S3        30.02R
HAMILTON       FOG       40  40 100 CALM      30.00R VSB 1
DAYTON         FAIR      42  41  96 SW10      29.97R
WRIGHT-PAT AFB NOT AVBL
DAYTON GENERAL MOCLDY    45  44  97 SW8       29.97R FOG
WILMINGTON     FAIR      43  42  97 SW8       29.98R FOG
$$

OHZ036-037-039>041-045>050-054>059-063>069-073>076-082>088-191200-
  CENTRAL AND SOUTHEAST OHIO

CITY           SKY/WX    TMP DP  RH WIND       PRES   REMARKS
COLUMBUS       FAIR      44  41  89 S3        29.95R FOG
OSU AIRPORT    FAIR      43  43 100 SW5       29.95R FOG
BOLTON FIELD   NOT AVBL
RICKENBACK AFB NOT AVBL
NEWARK         CLOUDY    47  44  90 SW7       29.94R FOG
MARION         CLOUDY    46  44  93 W9        29.94R FOG
LANCASTER      FAIR      47  44  90 CALM      29.96R
ZANESVILLE     CLOUDY    49  44  83 W7        29.95R
NEW PHILLY     FAIR      42  41  96 SW3       29.92R
$$



USA.gov is the U.S. government's official web portal to all federal, state and local government web resources and services.